Time,TemperatureF,DewpointF,PressureIn,WindDirection,WindDirectionDegrees,WindSpeedMPH,WindSpeedGustMPH,Humidity,HourlyPrecipIn,Conditions,Clouds,dailyrainin,SoftwareType,DateUTC
2013-07-09 00:02:00,81.1,64.4,29.99,SSE,150,12.0,13.0,57,0.00,,,0.00,meteohub,2013-07-09 05:02:00,
2013-07-09 00:07:00,81.0,64.2,29.98,SE,136,10.0,12.0,57,0.00,,,0.00,meteohub,2013-07-09 05:07:00,
2013-07-09 00:12:00,80.8,64.0,29.99,SSE,161,6.0,12.0,57,0.00,,,0.00,meteohub,2013-07-09 05:12:00,
2013-07-09 00:17:00,80.8,64.0,29.99,SE,128,5.0,12.0,57,0.00,,,0.00,meteohub,2013-07-09 05:17:00,
2013-07-09 00:22:00,80.8,64.0,29.99,SSE,158,0.0,13.0,57,0.00,,,0.00,meteohub,2013-07-09 05:22:00,
2013-07-09 00:27:00,80.4,64.2,29.99,ESE,122,0.0,13.0,58,0.00,,,0.00,meteohub,2013-07-09 05:27:00,
2013-07-09 00:32:00,80.4,64.2,29.99,SE,136,6.0,13.0,58,0.00,,,0.00,meteohub,2013-07-09 05:32:00,
2013-07-09 00:37:00,80.2,64.0,29.99,SSE,155,7.0,13.0,58,0.00,,,0.00,meteohub,2013-07-09 05:37:00,
2013-07-09 00:42:00,80.2,64.0,29.99,SE,140,8.0,11.0,58,0.00,,,0.00,meteohub,2013-07-09 05:42:00,
2013-07-09 00:47:00,80.2,64.0,29.99,South,180,0.0,11.0,58,0.00,,,0.00,meteohub,2013-07-09 05:47:00,
2013-07-09 00:52:00,80.1,64.4,29.99,South,171,0.0,13.0,59,0.00,,,0.00,meteohub,2013-07-09 05:52:00,
2013-07-09 00:57:00,80.1,64.4,30.00,SE,142,0.0,13.0,59,0.00,,,0.00,meteohub,2013-07-09 05:57:00,
2013-07-09 01:02:00,80.1,64.4,30.00,SSE,156,5.0,9.0,59,0.00,,,0.00,meteohub,2013-07-09 06:02:00,
2013-07-09 01:07:00,79.9,64.8,29.99,SSE,153,4.0,9.0,60,0.00,,,0.00,meteohub,2013-07-09 06:07:00,
2013-07-09 01:12:00,79.9,64.8,29.99,SSE,153,0.0,9.0,60,0.00,,,0.00,meteohub,2013-07-09 06:12:00,
2013-07-09 01:17:00,79.9,64.8,29.99,SSE,153,0.0,7.0,60,0.00,,,0.00,meteohub,2013-07-09 06:17:00,
2013-07-09 01:22:00,79.7,65.1,29.99,SSE,153,0.0,7.0,61,0.00,,,0.00,meteohub,2013-07-09 06:22:00,
2013-07-09 01:27:00,79.5,64.9,29.99,SSE,153,0.0,7.0,61,0.00,,,0.00,meteohub,2013-07-09 06:27:00,
2013-07-09 01:32:00,79.5,65.3,29.99,SSE,153,0.0,5.0,62,0.00,,,0.00,meteohub,2013-07-09 06:32:00,
2013-07-09 01:37:00,79.3,65.1,29.99,SSE,153,0.0,4.0,62,0.00,,,0.00,meteohub,2013-07-09 06:37:00,
2013-07-09 01:43:00,79.2,65.5,29.99,SSE,153,0.0,4.0,63,0.00,,,0.00,meteohub,2013-07-09 06:43:00,
2013-07-09 01:48:00,79.2,65.5,29.99,SSE,153,0.0,4.0,63,0.00,,,0.00,meteohub,2013-07-09 06:48:00,
2013-07-09 01:53:00,79.0,65.8,29.99,SSE,153,0.0,6.0,64,0.00,,,0.00,meteohub,2013-07-09 06:53:00,
2013-07-09 01:58:00,78.8,65.7,29.99,SSE,153,0.0,6.0,64,0.00,,,0.00,meteohub,2013-07-09 06:58:00,
2013-07-09 02:03:00,78.6,65.8,29.99,SSE,153,0.0,6.0,65,0.00,,,0.00,meteohub,2013-07-09 07:03:00,
2013-07-09 02:07:00,78.6,65.8,29.99,SSE,153,0.0,6.0,65,0.00,,,0.00,meteohub,2013-07-09 07:07:00,
2013-07-09 02:13:00,78.4,66.2,29.99,SSE,153,0.0,4.0,66,0.00,,,0.00,meteohub,2013-07-09 07:13:00,
2013-07-09 02:18:00,78.3,66.0,29.99,SSE,153,0.0,4.0,66,0.00,,,0.00,meteohub,2013-07-09 07:18:00,
2013-07-09 02:23:00,78.1,66.2,29.99,SSE,153,0.0,4.0,67,0.00,,,0.00,meteohub,2013-07-09 07:23:00,
2013-07-09 02:28:00,78.1,66.2,29.99,SSE,153,0.0,4.0,67,0.00,,,0.00,meteohub,2013-07-09 07:28:00,
2013-07-09 02:33:00,77.9,66.6,29.99,SSE,153,0.0,4.0,68,0.00,,,0.00,meteohub,2013-07-09 07:33:00,
2013-07-09 02:38:00,77.7,66.4,29.99,SSE,153,0.0,0.0,68,0.00,,,0.00,meteohub,2013-07-09 07:38:00,
2013-07-09 02:43:00,77.5,66.2,29.99,SSE,153,0.0,0.0,68,0.00,,,0.00,meteohub,2013-07-09 07:43:00,
2013-07-09 02:48:00,77.5,66.6,29.99,SSE,153,0.0,0.0,69,0.00,,,0.00,meteohub,2013-07-09 07:48:00,
2013-07-09 02:53:00,77.5,66.6,29.99,SSE,153,0.0,0.0,69,0.00,,,0.00,meteohub,2013-07-09 07:53:00,
2013-07-09 02:58:00,77.4,66.4,30.00,SSE,153,0.0,0.0,69,0.00,,,0.00,meteohub,2013-07-09 07:58:00,
2013-07-09 03:03:00,77.4,66.4,30.00,SSE,153,0.0,0.0,69,0.00,,,0.00,meteohub,2013-07-09 08:03:00,
2013-07-09 03:08:00,77.2,66.2,30.00,SSE,153,0.0,0.0,69,0.00,,,0.00,meteohub,2013-07-09 08:08:00,
2013-07-09 03:13:00,77.2,66.6,29.99,SSE,153,0.0,0.0,70,0.00,,,0.00,meteohub,2013-07-09 08:13:00,
2013-07-09 03:18:00,77.0,66.4,29.99,SSE,153,0.0,0.0,70,0.00,,,0.00,meteohub,2013-07-09 08:18:00,
2013-07-09 03:23:00,76.8,66.7,29.99,SSE,153,0.0,6.0,71,0.00,,,0.00,meteohub,2013-07-09 08:23:00,
2013-07-09 03:28:00,76.6,66.6,29.99,SSE,153,0.0,6.0,71,0.00,,,0.00,meteohub,2013-07-09 08:28:00,
2013-07-09 03:33:00,76.6,66.6,29.99,SSE,153,0.0,6.0,71,0.00,,,0.00,meteohub,2013-07-09 08:33:00,
2013-07-09 03:38:00,76.5,66.7,29.99,SSE,153,0.0,0.0,72,0.00,,,0.00,meteohub,2013-07-09 08:38:00,
2013-07-09 03:43:00,76.3,66.6,29.99,SSE,153,0.0,0.0,72,0.00,,,0.00,meteohub,2013-07-09 08:43:00,
2013-07-09 03:48:00,76.3,66.6,29.99,SSE,153,0.0,0.0,72,0.00,,,0.00,meteohub,2013-07-09 08:48:00,
2013-07-09 03:53:00,76.1,66.4,29.99,SSE,153,0.0,0.0,72,0.00,,,0.00,meteohub,2013-07-09 08:53:00,
2013-07-09 03:58:00,75.9,66.6,29.99,SSE,153,0.0,1.0,73,0.00,,,0.00,meteohub,2013-07-09 08:58:00,
2013-07-09 04:03:00,75.7,66.4,29.99,SSE,153,0.0,1.0,73,0.00,,,0.00,meteohub,2013-07-09 09:03:00,
2013-07-09 04:08:00,75.7,66.4,29.99,SSE,153,0.0,1.0,73,0.00,,,0.00,meteohub,2013-07-09 09:08:00,
2013-07-09 04:13:00,75.6,66.7,29.99,SSE,153,0.0,1.0,74,0.00,,,0.00,meteohub,2013-07-09 09:13:00,
2013-07-09 04:18:00,75.6,66.7,29.99,SSE,153,0.0,0.0,74,0.00,,,0.00,meteohub,2013-07-09 09:18:00,
2013-07-09 04:23:00,75.6,66.7,29.99,SSE,153,0.0,6.0,74,0.00,,,0.00,meteohub,2013-07-09 09:23:00,
2013-07-09 04:28:00,75.4,66.6,29.99,SSE,153,0.0,6.0,74,0.00,,,0.00,meteohub,2013-07-09 09:28:00,
2013-07-09 04:33:00,75.4,66.9,29.99,SSE,153,0.0,6.0,75,0.00,,,0.00,meteohub,2013-07-09 09:33:00,
2013-07-09 04:38:00,75.2,66.7,29.99,SSE,153,0.0,7.0,75,0.00,,,0.00,meteohub,2013-07-09 09:38:00,
2013-07-09 04:43:00,75.2,66.7,29.99,SSE,153,0.0,7.0,75,0.00,,,0.00,meteohub,2013-07-09 09:43:00,
2013-07-09 04:48:00,75.0,66.6,29.99,SSE,153,0.0,7.0,75,0.00,,,0.00,meteohub,2013-07-09 09:48:00,
2013-07-09 04:53:00,75.0,66.9,29.99,SSE,153,0.0,7.0,76,0.00,,,0.00,meteohub,2013-07-09 09:53:00,
2013-07-09 04:58:00,75.0,66.9,29.99,SSE,153,0.0,4.0,76,0.00,,,0.00,meteohub,2013-07-09 09:58:00,
2013-07-09 05:03:00,75.0,66.9,29.99,SSE,153,0.0,4.0,76,0.00,,,0.00,meteohub,2013-07-09 10:03:00,
2013-07-09 05:08:00,74.8,66.7,29.99,SSE,153,0.0,4.0,76,0.00,,,0.00,meteohub,2013-07-09 10:08:00,
2013-07-09 05:13:00,74.8,67.1,29.98,SSE,153,0.0,4.0,77,0.00,,,0.00,meteohub,2013-07-09 10:13:00,
2013-07-09 05:18:00,74.8,67.1,29.99,SSE,153,0.0,0.0,77,0.00,,,0.00,meteohub,2013-07-09 10:18:00,
2013-07-09 05:24:00,74.8,67.1,29.99,SSE,153,0.0,0.0,77,0.00,,,0.00,meteohub,2013-07-09 10:24:00,
2013-07-09 05:29:00,74.7,66.9,29.99,SSE,153,0.0,0.0,77,0.00,,,0.00,meteohub,2013-07-09 10:29:00,
2013-07-09 05:34:00,74.7,66.9,29.99,SSE,153,0.0,0.0,77,0.00,,,0.00,meteohub,2013-07-09 10:34:00,
2013-07-09 05:39:00,74.7,66.9,29.99,SSE,153,1.0,0.0,77,0.00,,,0.00,meteohub,2013-07-09 10:39:00,
2013-07-09 05:44:00,74.5,67.1,29.99,SSE,153,0.0,0.0,78,0.00,,,0.00,meteohub,2013-07-09 10:44:00,
2013-07-09 05:49:00,74.3,66.9,29.99,SSE,153,0.0,2.0,78,0.00,,,0.00,meteohub,2013-07-09 10:49:00,
2013-07-09 05:54:00,74.3,66.9,29.99,SSE,153,4.0,4.0,78,0.00,,,0.00,meteohub,2013-07-09 10:54:00,
2013-07-09 05:59:00,74.1,67.1,29.99,SSE,153,0.0,2.0,79,0.00,,,0.00,meteohub,2013-07-09 10:59:00,
2013-07-09 06:04:00,74.1,67.1,29.99,SSE,153,0.0,2.0,79,0.00,,,0.00,meteohub,2013-07-09 11:04:00,
2013-07-09 06:09:00,73.9,67.1,29.99,SSE,153,0.0,6.0,79,0.00,,,0.00,meteohub,2013-07-09 11:09:00,
2013-07-09 06:14:00,73.9,67.5,30.00,SSE,153,0.0,6.0,80,0.00,,,0.00,meteohub,2013-07-09 11:14:00,
2013-07-09 06:19:00,73.8,67.3,30.00,SSE,153,0.0,4.0,80,0.00,,,0.00,meteohub,2013-07-09 11:19:00,
2013-07-09 06:24:00,73.8,67.6,30.00,SSE,153,0.0,4.0,81,0.00,,,0.00,meteohub,2013-07-09 11:24:00,
2013-07-09 06:29:00,73.8,67.6,30.00,SSE,153,0.0,5.0,81,0.00,,,0.00,meteohub,2013-07-09 11:29:00,
2013-07-09 06:34:00,73.8,67.6,30.01,SSE,153,0.0,5.0,81,0.00,,,0.00,meteohub,2013-07-09 11:34:00,
2013-07-09 06:39:00,73.6,67.5,30.01,SSE,153,0.0,5.0,81,0.00,,,0.00,meteohub,2013-07-09 11:39:00,
2013-07-09 06:44:00,73.6,67.5,30.00,SSE,153,0.0,6.0,81,0.00,,,0.00,meteohub,2013-07-09 11:44:00,
2013-07-09 06:49:00,73.6,67.5,30.01,SSE,153,0.0,6.0,81,0.00,,,0.00,meteohub,2013-07-09 11:49:00,
2013-07-09 06:54:00,73.6,67.8,30.01,SSE,153,0.0,2.0,82,0.00,,,0.00,meteohub,2013-07-09 11:54:00,
2013-07-09 06:59:00,73.6,67.8,30.01,SSE,153,0.0,2.0,82,0.00,,,0.00,meteohub,2013-07-09 11:59:00,
2013-07-09 07:04:00,73.6,67.8,30.01,SSE,153,0.0,4.0,82,0.00,,,0.00,meteohub,2013-07-09 12:04:00,
2013-07-09 07:09:00,73.8,68.0,30.01,SSE,153,0.0,4.0,82,0.00,,,0.00,meteohub,2013-07-09 12:09:00,
2013-07-09 07:14:00,73.8,68.0,30.01,SSE,153,0.0,2.0,82,0.00,,,0.00,meteohub,2013-07-09 12:14:00,
2013-07-09 07:19:00,73.9,68.2,30.01,SSE,153,0.0,2.0,82,0.00,,,0.00,meteohub,2013-07-09 12:19:00,
2013-07-09 07:24:00,73.9,68.2,30.01,SSE,153,0.0,2.0,82,0.00,,,0.00,meteohub,2013-07-09 12:24:00,
2013-07-09 07:29:00,74.3,68.0,30.01,SSE,153,0.0,1.0,81,0.00,,,0.00,meteohub,2013-07-09 12:29:00,
2013-07-09 07:34:00,74.7,68.4,30.02,SSE,153,0.0,5.0,81,0.00,,,0.00,meteohub,2013-07-09 12:34:00,
2013-07-09 07:39:00,74.8,68.2,30.02,SSE,153,0.0,5.0,80,0.00,,,0.00,meteohub,2013-07-09 12:39:00,
2013-07-09 07:44:00,75.4,68.7,30.02,SSE,153,0.0,5.0,80,0.00,,,0.00,meteohub,2013-07-09 12:44:00,
2013-07-09 07:49:00,75.7,68.7,30.02,SSE,153,0.0,7.0,79,0.00,,,0.00,meteohub,2013-07-09 12:49:00,
2013-07-09 07:54:00,76.3,69.3,30.02,SSE,153,0.0,7.0,79,0.00,,,0.00,meteohub,2013-07-09 12:54:00,
2013-07-09 08:00:00,76.6,69.3,30.02,SE,134,2.0,7.0,78,0.00,,,0.00,meteohub,2013-07-09 13:00:00,
2013-07-09 08:05:00,76.8,69.1,30.02,SE,136,2.0,7.0,77,0.00,,,0.00,meteohub,2013-07-09 13:05:00,
2013-07-09 08:10:00,77.4,69.6,30.02,South,173,0.0,11.0,77,0.00,,,0.00,meteohub,2013-07-09 13:10:00,
2013-07-09 08:15:00,77.7,69.6,30.03,SSE,163,7.0,11.0,76,0.00,,,0.00,meteohub,2013-07-09 13:15:00,
2013-07-09 08:20:00,77.9,69.3,30.02,SSE,155,2.0,11.0,75,0.00,,,0.00,meteohub,2013-07-09 13:20:00,
2013-07-09 08:25:00,78.3,69.6,30.02,South,172,1.0,11.0,75,0.00,,,0.00,meteohub,2013-07-09 13:25:00,
2013-07-09 08:30:00,78.6,70.0,30.03,SSE,161,2.0,11.0,75,0.00,,,0.00,meteohub,2013-07-09 13:30:00,
2013-07-09 08:35:00,79.2,69.8,30.03,SSE,156,4.0,8.0,73,0.00,,,0.00,meteohub,2013-07-09 13:35:00,
2013-07-09 08:40:00,79.3,69.4,30.02,South,179,7.0,8.0,72,0.00,,,0.00,meteohub,2013-07-09 13:40:00,
2013-07-09 08:45:00,79.9,69.6,30.03,SSE,161,2.0,-999.0,71,0.00,,,0.00,meteohub,2013-07-09 13:45:00,
2013-07-09 08:50:00,80.2,69.6,30.03,SSW,197,5.0,8.0,70,0.00,,,0.00,meteohub,2013-07-09 13:50:00,
2013-07-09 08:55:00,80.8,69.3,30.02,SSE,161,1.0,10.0,68,0.00,,,0.00,meteohub,2013-07-09 13:55:00,
2013-07-09 09:00:00,81.0,68.9,30.03,South,173,0.0,10.0,67,0.00,,,0.00,meteohub,2013-07-09 14:00:00,
2013-07-09 09:05:00,81.3,69.3,30.04,SW,235,0.0,10.0,67,0.00,,,0.00,meteohub,2013-07-09 14:05:00,
2013-07-09 09:10:00,81.7,69.3,30.03,SSE,165,6.0,9.0,66,0.00,,,0.00,meteohub,2013-07-09 14:10:00,
2013-07-09 09:15:00,81.9,69.4,30.04,South,187,0.0,8.0,66,0.00,,,0.00,meteohub,2013-07-09 14:15:00,
2013-07-09 09:20:00,82.2,69.3,30.03,SSW,211,5.0,8.0,65,0.00,,,0.00,meteohub,2013-07-09 14:20:00,
2013-07-09 09:25:00,82.6,69.1,30.03,SSE,162,6.0,10.0,64,0.00,,,0.00,meteohub,2013-07-09 14:25:00,
2013-07-09 09:30:00,82.6,68.7,30.04,SW,221,10.0,10.0,63,0.00,,,0.00,meteohub,2013-07-09 14:30:00,
2013-07-09 09:35:00,82.4,69.1,30.04,SW,235,11.0,14.0,64,0.00,,,0.00,meteohub,2013-07-09 14:35:00,
2013-07-09 09:40:00,82.6,68.7,30.04,SW,222,3.0,14.0,63,0.00,,,0.00,meteohub,2013-07-09 14:40:00,
2013-07-09 09:45:00,82.8,68.9,30.04,South,182,0.0,14.0,63,0.00,,,0.00,meteohub,2013-07-09 14:45:00,
2013-07-09 09:50:00,83.1,68.4,30.04,SSE,157,0.0,14.0,61,0.00,,,0.00,meteohub,2013-07-09 14:50:00,
2013-07-09 09:55:00,83.7,68.4,30.04,SW,216,2.0,10.0,60,0.00,,,0.00,meteohub,2013-07-09 14:55:00,
2013-07-09 10:00:00,83.5,68.2,30.03,SW,234,1.0,10.0,60,0.00,,,0.00,meteohub,2013-07-09 15:00:00,
2013-07-09 10:05:00,83.7,68.4,30.04,WSW,246,3.0,10.0,60,0.00,,,0.00,meteohub,2013-07-09 15:05:00,
2013-07-09 10:10:00,84.0,68.2,30.04,SW,217,2.0,14.0,59,0.00,,,0.00,meteohub,2013-07-09 15:10:00,
2013-07-09 10:15:00,84.4,68.5,30.04,West,269,0.0,11.0,59,0.00,,,0.00,meteohub,2013-07-09 15:15:00,
2013-07-09 10:20:00,84.7,68.4,30.04,SSW,205,4.0,11.0,58,0.00,,,0.00,meteohub,2013-07-09 15:20:00,
2013-07-09 10:25:00,84.9,68.0,30.04,SSW,204,0.0,12.0,57,0.00,,,0.00,meteohub,2013-07-09 15:25:00,
2013-07-09 10:30:00,85.3,68.4,30.04,SSW,198,2.0,12.0,57,0.00,,,0.00,meteohub,2013-07-09 15:30:00,
2013-07-09 10:35:00,84.9,68.0,30.04,SW,230,5.0,11.0,57,0.00,,,0.00,meteohub,2013-07-09 15:35:00,
2013-07-09 10:40:00,84.6,67.6,30.04,SSW,200,0.0,11.0,57,0.00,,,0.00,meteohub,2013-07-09 15:40:00,
2013-07-09 10:45:00,84.7,67.8,30.03,WSW,241,2.0,13.0,57,0.00,,,0.00,meteohub,2013-07-09 15:45:00,
2013-07-09 10:50:00,84.6,67.6,30.03,SSW,213,7.0,13.0,57,0.00,,,0.00,meteohub,2013-07-09 15:50:00,
2013-07-09 10:55:00,84.7,67.3,30.03,ESE,111,4.0,12.0,56,0.00,,,0.00,meteohub,2013-07-09 15:55:00,
2013-07-09 11:01:00,85.6,67.6,30.03,South,180,0.0,12.0,55,0.00,,,0.00,meteohub,2013-07-09 16:01:00,
2013-07-09 11:06:00,86.9,67.1,30.03,SSW,205,5.0,12.0,52,0.00,,,0.00,meteohub,2013-07-09 16:06:00,
2013-07-09 11:11:00,87.3,66.9,30.03,SSW,193,4.0,12.0,51,0.00,,,0.00,meteohub,2013-07-09 16:11:00,
2013-07-09 11:16:00,87.8,66.2,30.03,South,186,1.0,11.0,49,0.00,,,0.00,meteohub,2013-07-09 16:16:00,
2013-07-09 11:21:00,88.2,66.6,30.03,SW,233,4.0,11.0,49,0.00,,,0.00,meteohub,2013-07-09 16:21:00,
2013-07-09 11:26:00,88.2,66.6,30.03,SSW,196,0.0,11.0,49,0.00,,,0.00,meteohub,2013-07-09 16:26:00,
2013-07-09 11:31:00,88.2,66.0,30.04,West,263,2.0,11.0,48,0.00,,,0.00,meteohub,2013-07-09 16:31:00,
2013-07-09 11:36:00,88.3,66.2,30.03,SE,138,6.0,16.0,48,0.00,,,0.00,meteohub,2013-07-09 16:36:00,
2013-07-09 11:41:00,88.7,65.8,30.03,SW,216,9.0,16.0,47,0.00,,,0.00,meteohub,2013-07-09 16:41:00,
2013-07-09 11:46:00,88.9,65.5,30.03,SSW,207,2.0,14.0,46,0.00,,,0.00,meteohub,2013-07-09 16:46:00,
2013-07-09 11:51:00,89.2,66.4,30.03,SW,234,1.0,14.0,47,0.00,,,0.00,meteohub,2013-07-09 16:51:00,
2013-07-09 11:56:00,90.0,66.4,30.03,South,169,0.0,14.0,46,0.00,,,0.00,meteohub,2013-07-09 16:56:00,
2013-07-09 12:01:00,90.3,66.0,30.03,SW,233,12.0,14.0,45,0.00,,,0.00,meteohub,2013-07-09 17:01:00,
2013-07-09 12:06:00,90.3,65.5,30.03,SE,140,6.0,12.0,44,0.00,,,0.00,meteohub,2013-07-09 17:06:00,
2013-07-09 12:11:00,90.3,65.5,30.02,South,191,4.0,12.0,44,0.00,,,0.00,meteohub,2013-07-09 17:11:00,
2013-07-09 12:16:00,90.7,65.1,30.02,SSE,163,9.0,12.0,43,0.00,,,0.00,meteohub,2013-07-09 17:16:00,
2013-07-09 12:21:00,90.7,65.1,30.02,SSW,209,3.0,12.0,43,0.00,,,0.00,meteohub,2013-07-09 17:21:00,
2013-07-09 12:26:00,90.9,65.8,30.02,South,186,0.0,13.0,44,0.00,,,0.00,meteohub,2013-07-09 17:26:00,
2013-07-09 12:31:00,91.0,64.8,30.02,South,185,1.0,13.0,42,0.00,,,0.00,meteohub,2013-07-09 17:31:00,
2013-07-09 12:36:00,91.0,65.5,30.01,SSW,198,0.0,13.0,43,0.00,,,0.00,meteohub,2013-07-09 17:36:00,
2013-07-09 12:41:00,91.2,64.9,30.01,WSW,244,2.0,13.0,42,0.00,,,0.00,meteohub,2013-07-09 17:41:00,
2013-07-09 12:46:00,91.6,65.3,30.02,SSW,199,4.0,13.0,42,0.00,,,0.00,meteohub,2013-07-09 17:46:00,
2013-07-09 12:51:00,91.8,65.5,30.01,SW,223,4.0,13.0,42,0.00,,,0.00,meteohub,2013-07-09 17:51:00,
2013-07-09 12:56:00,91.8,64.8,30.01,SW,223,2.0,13.0,41,0.00,,,0.00,meteohub,2013-07-09 17:56:00,
2013-07-09 13:01:00,91.6,65.3,30.01,SW,234,2.0,12.0,42,0.00,,,0.00,meteohub,2013-07-09 18:01:00,
2013-07-09 13:06:00,91.8,65.5,30.01,SSW,213,2.0,16.0,42,0.00,,,0.00,meteohub,2013-07-09 18:06:00,
2013-07-09 13:11:00,92.3,65.1,30.00,South,180,0.0,16.0,41,0.00,,,0.00,meteohub,2013-07-09 18:11:00,
2013-07-09 13:16:00,92.8,64.9,30.00,SW,217,5.0,16.0,40,0.00,,,0.00,meteohub,2013-07-09 18:16:00,
2013-07-09 13:21:00,93.4,64.0,30.00,SW,217,2.0,16.0,38,0.00,,,0.00,meteohub,2013-07-09 18:21:00,
2013-07-09 13:26:00,93.6,64.9,30.00,SW,227,10.0,16.0,39,0.00,,,0.00,meteohub,2013-07-09 18:26:00,
2013-07-09 13:31:00,93.6,64.2,30.00,SSW,212,0.0,16.0,38,0.00,,,0.00,meteohub,2013-07-09 18:31:00,
2013-07-09 13:36:00,93.9,64.4,29.99,SSW,209,5.0,14.0,38,0.00,,,0.00,meteohub,2013-07-09 18:36:00,
2013-07-09 13:41:00,94.1,63.9,29.99,SSW,213,2.0,14.0,37,0.00,,,0.00,meteohub,2013-07-09 18:41:00,
2013-07-09 13:46:00,94.5,63.3,29.99,SW,223,2.0,13.0,36,0.00,,,0.00,meteohub,2013-07-09 18:46:00,
2013-07-09 13:51:00,94.5,63.3,29.99,SSW,209,0.0,13.0,36,0.00,,,0.00,meteohub,2013-07-09 18:51:00,
2013-07-09 13:52:00,94.5,63.3,29.99,South,190,2.0,13.0,36,0.00,,,0.00,meteohub,2013-07-09 18:52:00,
2013-07-09 13:57:00,94.6,63.5,29.99,SE,144,4.0,13.0,36,0.00,,,0.00,meteohub,2013-07-09 18:57:00,
2013-07-09 14:02:00,94.8,63.7,29.98,SW,216,10.0,13.0,36,0.00,,,0.00,meteohub,2013-07-09 19:02:00,
2013-07-09 14:07:00,94.6,62.8,29.98,SSE,152,7.0,13.0,35,0.00,,,0.00,meteohub,2013-07-09 19:07:00,
2013-07-09 14:12:00,94.6,62.8,29.98,SSE,165,0.0,17.0,35,0.00,,,0.00,meteohub,2013-07-09 19:12:00,
2013-07-09 14:17:00,94.8,63.0,29.98,SW,233,4.0,17.0,35,0.00,,,0.00,meteohub,2013-07-09 19:17:00,
2013-07-09 14:22:00,94.5,62.6,29.97,SW,232,4.0,17.0,35,0.00,,,0.00,meteohub,2013-07-09 19:22:00,
2013-07-09 14:27:00,94.6,62.8,29.97,SSE,151,14.0,17.0,35,0.00,,,0.00,meteohub,2013-07-09 19:27:00,
2013-07-09 14:32:00,94.6,61.9,29.97,SSW,211,11.0,17.0,34,0.00,,,0.00,meteohub,2013-07-09 19:32:00,
2013-07-09 14:37:00,95.0,63.1,29.97,SW,225,0.0,17.0,35,0.00,,,0.00,meteohub,2013-07-09 19:37:00,
2013-07-09 14:42:00,95.4,63.3,29.97,SSW,193,0.0,17.0,35,0.00,,,0.00,meteohub,2013-07-09 19:42:00,
2013-07-09 14:47:00,95.7,62.8,29.97,East,100,1.0,15.0,34,0.00,,,0.00,meteohub,2013-07-09 19:47:00,
2013-07-09 14:52:00,96.1,62.2,29.96,South,178,0.0,13.0,33,0.00,,,0.00,meteohub,2013-07-09 19:52:00,
2013-07-09 14:57:00,96.6,62.8,29.96,SSW,198,0.0,13.0,33,0.00,,,0.00,meteohub,2013-07-09 19:57:00,
2013-07-09 15:02:00,97.0,62.2,29.96,SSE,167,1.0,12.0,32,0.00,,,0.00,meteohub,2013-07-09 20:02:00,
2013-07-09 15:07:00,97.3,62.6,29.96,South,182,3.0,12.0,32,0.00,,,0.00,meteohub,2013-07-09 20:07:00,
2013-07-09 15:12:00,97.5,62.8,29.96,SW,236,0.0,11.0,32,0.00,,,0.00,meteohub,2013-07-09 20:12:00,
2013-07-09 15:17:00,97.3,62.6,29.95,SSW,198,1.0,14.0,32,0.00,,,0.00,meteohub,2013-07-09 20:17:00,
2013-07-09 15:22:00,96.6,61.9,29.95,SSW,208,0.0,14.0,32,0.00,,,0.00,meteohub,2013-07-09 20:22:00,
2013-07-09 15:27:00,97.0,62.2,29.95,SSW,205,0.0,14.0,32,0.00,,,0.00,meteohub,2013-07-09 20:27:00,
2013-07-09 15:32:00,97.3,62.6,29.95,South,176,2.0,13.0,32,0.00,,,0.00,meteohub,2013-07-09 20:32:00,
2013-07-09 15:37:00,97.5,62.8,29.95,SSE,163,1.0,13.0,32,0.00,,,0.00,meteohub,2013-07-09 20:37:00,
2013-07-09 15:42:00,97.9,62.1,29.94,SW,226,0.0,13.0,31,0.00,,,0.00,meteohub,2013-07-09 20:42:00,
2013-07-09 15:47:00,97.7,61.9,29.94,WSW,246,7.0,13.0,31,0.00,,,0.00,meteohub,2013-07-09 20:47:00,
2013-07-09 15:52:00,98.1,62.2,29.95,SW,229,11.0,13.0,31,0.00,,,0.00,meteohub,2013-07-09 20:52:00,
2013-07-09 15:57:00,97.7,61.0,29.94,WSW,243,11.0,15.0,30,0.00,,,0.00,meteohub,2013-07-09 20:57:00,
2013-07-09 16:02:00,97.9,62.1,29.94,South,190,3.0,15.0,31,0.00,,,0.00,meteohub,2013-07-09 21:02:00,
2013-07-09 16:07:00,97.9,62.1,29.94,SW,223,0.0,15.0,31,0.00,,,0.00,meteohub,2013-07-09 21:07:00,
2013-07-09 16:12:00,98.4,62.6,29.94,SSW,204,2.0,13.0,31,0.00,,,0.00,meteohub,2013-07-09 21:12:00,
2013-07-09 16:17:00,98.8,61.9,29.94,SE,128,8.0,11.0,30,0.00,,,0.00,meteohub,2013-07-09 21:17:00,
2013-07-09 16:22:00,98.8,61.9,29.93,SW,221,3.0,11.0,30,0.00,,,0.00,meteohub,2013-07-09 21:22:00,
2013-07-09 16:27:00,98.6,61.9,29.93,SW,227,0.0,11.0,30,0.00,,,0.00,meteohub,2013-07-09 21:27:00,
2013-07-09 16:32:00,98.4,61.7,29.93,ESE,119,7.0,14.0,30,0.00,,,0.00,meteohub,2013-07-09 21:32:00,
2013-07-09 16:37:00,97.9,62.1,29.93,SE,140,4.0,14.0,31,0.00,,,0.00,meteohub,2013-07-09 21:37:00,
2013-07-09 16:42:00,97.3,61.7,29.92,SSE,157,0.0,17.0,31,0.00,,,0.00,meteohub,2013-07-09 21:42:00,
2013-07-09 16:47:00,97.9,62.1,29.92,SSW,212,2.0,17.0,31,0.00,,,0.00,meteohub,2013-07-09 21:47:00,
2013-07-09 16:52:00,98.1,61.3,29.93,SSE,165,5.0,17.0,30,0.00,,,0.00,meteohub,2013-07-09 21:52:00,
2013-07-09 16:58:00,97.5,61.9,29.92,SSW,207,1.0,11.0,31,0.00,,,0.00,meteohub,2013-07-09 21:58:00,
2013-07-09 17:03:00,97.2,61.5,29.92,SSW,213,4.0,11.0,31,0.00,,,0.00,meteohub,2013-07-09 22:03:00,
2013-07-09 17:08:00,97.0,62.2,29.92,SSW,193,3.0,11.0,32,0.00,,,0.00,meteohub,2013-07-09 22:08:00,
2013-07-09 17:13:00,97.3,61.7,29.91,SSE,157,5.0,13.0,31,0.00,,,0.00,meteohub,2013-07-09 22:13:00,
2013-07-09 17:18:00,97.5,61.9,29.91,SSW,194,5.0,13.0,31,0.00,,,0.00,meteohub,2013-07-09 22:18:00,
2013-07-09 17:23:00,97.9,62.1,29.91,South,178,4.0,9.0,31,0.00,,,0.00,meteohub,2013-07-09 22:23:00,
2013-07-09 17:28:00,97.9,62.1,29.91,SSE,164,12.0,12.0,31,0.00,,,0.00,meteohub,2013-07-09 22:28:00,
2013-07-09 17:33:00,97.7,61.9,29.91,SE,136,5.0,15.0,31,0.00,,,0.00,meteohub,2013-07-09 22:33:00,
2013-07-09 17:38:00,97.2,61.5,29.91,SE,128,2.0,15.0,31,0.00,,,0.00,meteohub,2013-07-09 22:38:00,
2013-07-09 17:43:00,97.3,61.7,29.90,SSW,203,0.0,13.0,31,0.00,,,0.00,meteohub,2013-07-09 22:43:00,
2013-07-09 17:48:00,97.5,61.9,29.90,SSE,150,13.0,13.0,31,0.00,,,0.00,meteohub,2013-07-09 22:48:00,
2013-07-09 17:53:00,97.5,60.8,29.90,SSE,160,5.0,19.0,30,0.00,,,0.00,meteohub,2013-07-09 22:53:00,
2013-07-09 17:58:00,97.2,61.5,29.90,South,170,6.0,19.0,31,0.00,,,0.00,meteohub,2013-07-09 22:58:00,
2013-07-09 18:03:00,97.0,61.3,29.90,SW,220,3.0,19.0,31,0.00,,,0.00,meteohub,2013-07-09 23:03:00,
2013-07-09 18:08:00,97.0,60.4,29.90,South,190,5.0,19.0,30,0.00,,,0.00,meteohub,2013-07-09 23:08:00,
2013-07-09 18:13:00,96.6,60.1,29.90,SSE,148,10.0,15.0,30,0.00,,,0.00,meteohub,2013-07-09 23:13:00,
2013-07-09 18:18:00,96.3,59.7,29.90,SSW,200,5.0,15.0,30,0.00,,,0.00,meteohub,2013-07-09 23:18:00,
2013-07-09 18:23:00,96.3,60.6,29.90,SSE,167,0.0,15.0,31,0.00,,,0.00,meteohub,2013-07-09 23:23:00,
2013-07-09 18:28:00,96.3,59.7,29.90,SSW,204,3.0,16.0,30,0.00,,,0.00,meteohub,2013-07-09 23:28:00,
2013-07-09 18:33:00,96.4,59.9,29.90,South,182,2.0,16.0,30,0.00,,,0.00,meteohub,2013-07-09 23:33:00,
2013-07-09 18:38:00,96.4,59.9,29.90,SSE,153,8.0,14.0,30,0.00,,,0.00,meteohub,2013-07-09 23:38:00,
2013-07-09 18:43:00,96.4,60.8,29.90,South,174,8.0,14.0,31,0.00,,,0.00,meteohub,2013-07-09 23:43:00,
2013-07-09 18:48:00,96.4,60.8,29.90,South,175,11.0,15.0,31,0.00,,,0.00,meteohub,2013-07-09 23:48:00,
2013-07-09 18:53:00,96.3,61.5,29.90,SE,129,15.0,15.0,32,0.00,,,0.00,meteohub,2013-07-09 23:53:00,
2013-07-09 18:58:00,95.9,61.3,29.90,South,184,5.0,15.0,32,0.00,,,0.00,meteohub,2013-07-09 23:58:00,
2013-07-09 19:03:00,95.7,61.2,29.89,SE,139,2.0,15.0,32,0.00,,,0.00,meteohub,2013-07-10 00:03:00,
2013-07-09 19:08:00,95.5,61.0,29.89,SSE,159,6.0,15.0,32,0.00,,,0.00,meteohub,2013-07-10 00:08:00,
2013-07-09 19:13:00,95.2,60.6,29.90,South,184,4.0,16.0,32,0.00,,,0.00,meteohub,2013-07-10 00:13:00,
2013-07-09 19:18:00,94.6,60.3,29.89,SSE,163,1.0,16.0,32,0.00,,,0.00,meteohub,2013-07-10 00:18:00,
2013-07-09 19:23:00,94.6,60.3,29.89,SSW,201,7.0,13.0,32,0.00,,,0.00,meteohub,2013-07-10 00:23:00,
2013-07-09 19:28:00,94.6,60.3,29.89,SE,142,10.0,13.0,32,0.00,,,0.00,meteohub,2013-07-10 00:28:00,
2013-07-09 19:33:00,94.6,60.3,29.89,SE,131,6.0,14.0,32,0.00,,,0.00,meteohub,2013-07-10 00:33:00,
2013-07-09 19:38:00,94.8,60.4,29.89,SSE,166,1.0,14.0,32,0.00,,,0.00,meteohub,2013-07-10 00:38:00,
2013-07-09 19:43:00,94.8,60.4,29.89,South,190,4.0,12.0,32,0.00,,,0.00,meteohub,2013-07-10 00:43:00,
2013-07-09 19:48:00,94.6,60.3,29.89,SSE,158,10.0,12.0,32,0.00,,,0.00,meteohub,2013-07-10 00:48:00,
2013-07-09 19:53:00,94.6,60.3,29.89,South,174,2.0,11.0,32,0.00,,,0.00,meteohub,2013-07-10 00:53:00,
2013-07-09 19:58:00,94.5,60.1,29.89,SE,140,0.0,13.0,32,0.00,,,0.00,meteohub,2013-07-10 00:58:00,
2013-07-09 20:03:00,94.3,59.9,29.89,SSE,163,0.0,13.0,32,0.00,,,0.00,meteohub,2013-07-10 01:03:00,
2013-07-09 20:08:00,94.3,59.0,29.89,South,181,0.0,13.0,31,0.00,,,0.00,meteohub,2013-07-10 01:08:00,
2013-07-09 20:13:00,94.1,59.7,29.89,SW,235,0.0,10.0,32,0.00,,,0.00,meteohub,2013-07-10 01:13:00,
2013-07-09 20:19:00,93.9,59.5,29.89,SSW,194,0.0,9.0,32,0.00,,,0.00,meteohub,2013-07-10 01:19:00,
2013-07-09 20:24:00,93.7,59.4,29.89,SE,146,0.0,12.0,32,0.00,,,0.00,meteohub,2013-07-10 01:24:00,
2013-07-09 20:29:00,93.4,59.2,29.89,SSE,166,0.0,12.0,32,0.00,,,0.00,meteohub,2013-07-10 01:29:00,
2013-07-09 20:34:00,93.0,58.8,29.89,SW,215,0.0,12.0,32,0.00,,,0.00,meteohub,2013-07-10 01:34:00,
2013-07-09 20:39:00,92.8,58.6,29.89,SSE,155,0.0,12.0,32,0.00,,,0.00,meteohub,2013-07-10 01:39:00,
2013-07-09 20:44:00,92.5,58.3,29.90,South,173,0.0,8.0,32,0.00,,,0.00,meteohub,2013-07-10 01:44:00,
2013-07-09 20:49:00,92.1,58.1,29.90,SE,146,1.0,8.0,32,0.00,,,0.00,meteohub,2013-07-10 01:49:00,
2013-07-09 20:54:00,91.8,57.7,29.89,South,177,0.0,8.0,32,0.00,,,0.00,meteohub,2013-07-10 01:54:00,
2013-07-09 20:59:00,91.6,58.5,29.89,SW,224,0.0,7.0,33,0.00,,,0.00,meteohub,2013-07-10 01:59:00,
2013-07-09 21:04:00,91.2,58.1,29.89,South,182,0.0,7.0,33,0.00,,,0.00,meteohub,2013-07-10 02:04:00,
2013-07-09 21:09:00,91.0,58.8,29.89,South,178,0.0,7.0,34,0.00,,,0.00,meteohub,2013-07-10 02:09:00,
2013-07-09 21:14:00,90.9,58.6,29.89,SW,217,1.0,7.0,34,0.00,,,0.00,meteohub,2013-07-10 02:14:00,
2013-07-09 21:19:00,90.7,58.5,29.90,SSW,201,0.0,7.0,34,0.00,,,0.00,meteohub,2013-07-10 02:19:00,
2013-07-09 21:24:00,90.3,58.1,29.90,SSW,208,0.0,7.0,34,0.00,,,0.00,meteohub,2013-07-10 02:24:00,
2013-07-09 21:29:00,90.1,58.8,29.90,SW,219,0.0,7.0,35,0.00,,,0.00,meteohub,2013-07-10 02:29:00,
2013-07-09 21:34:00,90.0,58.6,29.90,SSW,202,0.0,7.0,35,0.00,,,0.00,meteohub,2013-07-10 02:34:00,
2013-07-09 21:39:00,89.8,58.5,29.90,SSW,203,0.0,7.0,35,0.00,,,0.00,meteohub,2013-07-10 02:39:00,
2013-07-09 21:44:00,89.4,58.1,29.91,SSW,200,0.0,6.0,35,0.00,,,0.00,meteohub,2013-07-10 02:44:00,
2013-07-09 21:49:00,89.2,58.8,29.90,SSW,201,0.0,6.0,36,0.00,,,0.00,meteohub,2013-07-10 02:49:00,
2013-07-09 21:54:00,88.9,58.5,29.91,SW,215,0.0,5.0,36,0.00,,,0.00,meteohub,2013-07-10 02:54:00,
2013-07-09 21:59:00,88.7,58.3,29.91,SW,236,0.0,4.0,36,0.00,,,0.00,meteohub,2013-07-10 02:59:00,
2013-07-09 22:04:00,88.3,58.8,29.91,SW,236,0.0,4.0,37,0.00,,,0.00,meteohub,2013-07-10 03:04:00,
2013-07-09 22:09:00,88.2,58.6,29.91,SW,236,0.0,4.0,37,0.00,,,0.00,meteohub,2013-07-10 03:09:00,
2013-07-09 22:14:00,87.8,58.3,29.91,SW,236,0.0,0.0,37,0.00,,,0.00,meteohub,2013-07-10 03:14:00,
2013-07-09 22:19:00,87.4,58.6,29.92,SW,220,0.0,0.0,38,0.00,,,0.00,meteohub,2013-07-10 03:19:00,
2013-07-09 22:24:00,87.1,58.5,29.92,SW,220,0.0,0.0,38,0.00,,,0.00,meteohub,2013-07-10 03:24:00,
2013-07-09 22:29:00,86.7,58.8,29.92,SW,217,1.0,0.0,39,0.00,,,0.00,meteohub,2013-07-10 03:29:00,
2013-07-09 22:34:00,86.5,58.6,29.92,SSW,211,0.0,2.0,39,0.00,,,0.00,meteohub,2013-07-10 03:34:00,
2013-07-09 22:39:00,86.4,58.5,29.92,SSW,211,0.0,2.0,39,0.00,,,0.00,meteohub,2013-07-10 03:39:00,
2013-07-09 22:44:00,86.0,58.1,29.92,SSW,211,0.0,2.0,39,0.00,,,0.00,meteohub,2013-07-10 03:44:00,
2013-07-09 22:49:00,85.8,58.6,29.92,SSW,211,0.0,2.0,40,0.00,,,0.00,meteohub,2013-07-10 03:49:00,
2013-07-09 22:54:00,85.6,58.5,29.92,SSW,209,0.0,1.0,40,0.00,,,0.00,meteohub,2013-07-10 03:54:00,
2013-07-09 22:59:00,85.5,58.5,29.92,SSW,207,0.0,3.0,40,0.00,,,0.00,meteohub,2013-07-10 03:59:00,
2013-07-09 23:01:00,85.5,58.5,29.92,SSW,207,0.0,3.0,40,0.00,,,0.00,meteohub,2013-07-10 04:01:00,
2013-07-09 23:06:00,85.3,59.0,29.93,SSW,207,0.0,3.0,41,0.00,,,0.00,meteohub,2013-07-10 04:06:00,
2013-07-09 23:11:00,85.3,59.0,29.93,SSW,207,0.0,3.0,41,0.00,,,0.00,meteohub,2013-07-10 04:11:00,
2013-07-09 23:16:00,84.9,58.6,29.94,SSE,153,0.0,2.0,41,0.00,,,0.00,meteohub,2013-07-10 04:16:00,
2013-07-09 23:21:00,84.9,58.6,29.94,SSE,150,0.0,4.0,41,0.00,,,0.00,meteohub,2013-07-10 04:21:00,
2013-07-09 23:26:00,84.7,59.2,29.94,SSE,150,0.0,7.0,42,0.00,,,0.00,meteohub,2013-07-10 04:26:00,
2013-07-09 23:31:00,84.6,59.0,29.94,SSE,150,0.0,7.0,42,0.00,,,0.00,meteohub,2013-07-10 04:31:00,
2013-07-09 23:36:00,84.4,58.8,29.94,SSE,149,1.0,7.0,42,0.00,,,0.00,meteohub,2013-07-10 04:36:00,
2013-07-09 23:41:00,84.0,59.2,29.94,SSE,152,2.0,7.0,43,0.00,,,0.00,meteohub,2013-07-10 04:41:00,
2013-07-09 23:46:00,83.8,59.5,29.94,South,191,0.0,5.0,44,0.00,,,0.00,meteohub,2013-07-10 04:46:00,
2013-07-09 23:51:00,83.7,59.4,29.94,SSW,198,0.0,5.0,44,0.00,,,0.00,meteohub,2013-07-10 04:51:00,
2013-07-09 23:56:00,83.7,59.4,29.94,SE,140,7.0,7.0,44,0.00,,,0.00,meteohub,2013-07-10 04:56:00,